TimeEDT,TemperatureF,Dew PointF,Humidity,Sea Level PressureIn,VisibilityMPH,Wind Direction,Wind SpeedMPH,Gust SpeedMPH,PrecipitationIn,Events,Conditions,WindDirDegrees,DateUTC
12:00 AM,55.0,50.9,86,30.00,-9999.0,NNW,3.5,-,N/A,,Unknown,330,2012-10-28 04:00:00
1:00 AM,54.9,50.0,84,30.01,-9999.0,West,2.3,-,N/A,,Unknown,260,2012-10-28 05:00:00
2:00 AM,52,49,85,30.02,,SW,5.8,,,,,230,2012-10-28 06:00:00
2:00 AM,51.8,48.7,89,30.02,-9999.0,SW,5.8,-,N/A,,Unknown,230,2012-10-28 06:00:00
3:00 AM,50.5,47.8,90,30.03,-9999.0,WSW,6.9,-,N/A,,Unknown,250,2012-10-28 07:00:00
4:00 AM,50.0,47.7,92,30.02,-9999.0,WSW,4.6,-,N/A,,Unknown,250,2012-10-28 08:00:00
5:00 AM,49.3,47.5,94,30.03,-9999.0,SW,4.6,-,N/A,,Unknown,230,2012-10-28 09:00:00
6:00 AM,48.7,47.3,95,30.03,-9999.0,SW,4.6,-,N/A,,Unknown,230,2012-10-28 10:00:00
7:00 AM,47.8,46.9,97,30.05,-9999.0,SW,4.6,-,N/A,,Unknown,230,2012-10-28 11:00:00
8:00 AM,48,47,94,30.06,,SW,3.5,,,,,230,2012-10-28 12:00:00
8:00 AM,47.8,46.8,96,30.06,-9999.0,SW,3.5,-,N/A,,Unknown,230,2012-10-28 12:00:00
9:00 AM,48.6,46.8,93,30.07,-9999.0,SW,3.5,-,N/A,,Unknown,220,2012-10-28 13:00:00
10:00 AM,49.3,46.8,91,30.06,-9999.0,SW,4.6,-,N/A,,Unknown,230,2012-10-28 14:00:00
11:00 AM,50.4,46.8,87,30.05,-9999.0,West,4.6,-,N/A,,Unknown,270,2012-10-28 15:00:00
12:00 PM,51.1,47.1,86,30.05,-9999.0,West,2.3,-,N/A,,Unknown,270,2012-10-28 16:00:00
1:00 PM,52.5,47.8,84,30.02,-9999.0,SW,2.3,-,N/A,,Unknown,220,2012-10-28 17:00:00
2:00 PM,54,48,74,30.01,,NNE,2.3,,,,,30,2012-10-28 18:00:00
2:00 PM,54.0,48.0,80,30.01,-9999.0,NNE,2.3,-,N/A,,Unknown,30,2012-10-28 18:00:00
3:00 PM,54.3,48.6,81,29.99,-9999.0,NE,5.8,-,N/A,,Unknown,50,2012-10-28 19:00:00
4:00 PM,54.3,48.6,81,29.97,-9999.0,East,2.3,-,N/A,,Unknown,90,2012-10-28 20:00:00
5:00 PM,54.9,47.3,76,29.97,-9999.0,ENE,5.8,-,N/A,,Unknown,70,2012-10-28 21:00:00
6:00 PM,52.3,46.6,81,29.96,-9999.0,ENE,3.5,-,N/A,,Unknown,60,2012-10-28 22:00:00
7:00 PM,50.9,45.5,82,29.96,-9999.0,NE,1.2,-,N/A,,Unknown,40,2012-10-28 23:00:00
8:00 PM,48,46,88,29.96,,SW,1.2,,,,,230,2012-10-29 00:00:00
8:00 PM,47.8,45.5,92,29.96,-9999.0,SW,1.2,-,N/A,,Unknown,230,2012-10-29 00:00:00
9:00 PM,46.9,45.5,95,29.96,-9999.0,WSW,1.2,-,N/A,,Unknown,250,2012-10-29 01:00:00
10:00 PM,45.9,44.8,96,29.95,-9999.0,WNW,1.2,-,N/A,,Unknown,290,2012-10-29 02:00:00
11:00 PM,48.2,46.2,93,29.94,-9999.0,ENE,3.5,-,N/A,,Unknown,60,2012-10-29 03:00:00